Location: Bois de la Silve
(44.4667°N, 6.7833°E)
Time: 21:10:29
(UTC+00:00)

Cosmos 540 Rocket - Pass Details

Date: 14 July 2020
Orbit: 740 x 754 km, 74.1° (Epoch: 14 August)

Event Time Altitude Azimuth Distance (km) Brightness Sun altitude
Rises 02:50:52 0° 341° (NNW) 3,198 7.1 -10.7°
Reaches altitude 10° 02:53:16 10° 345° (NNW) 2,272 6.4 -10.4°
Maximum altitude 02:58:22 63° 67° (ENE) 837 4.0 -9.7°
Drops below altitude 10° 03:03:28 10° 148° (SSE) 2,265 5.8 -9.1°
Sets 03:05:50 0° 152° (SSE) 3,187 6.6 -8.8°
